• Join FlightAware (Why Join?)
  • Login
  • US Flag GB Flag 
07:16 EDT


 

Airport Tracker/Info


-or-


 

Live Flight TrackerFlight Track Log ✈ N163CA ✈ 06-Nov-2013 ✈ KSRQ - KSFB

Flight Track Log - Related Links

Times and Time Zones

All times are in EST time to prevent confusion due to time zone crossing. See the N163CA flight status page for this flight to view local times or setup timezone preferences in your user account.

Time Position Orientation Groundspeed Altitude Reporting Facility
EST Latitude Longitude Course Direction KTS MPH feet Rate Location/Type
17:12 27.4167 -82.4833 32° Northeast 101 116 2,200  Level Tampa TRACON
17:13 27.4333 -82.4667 42° Northeast 100 115 2,800 660 Climbing Tampa TRACON
17:14 27.4500 -82.4500 42° Northeast 101 116 3,500 660 Climbing Tampa TRACON
17:15 27.4833 -82.4333 24° Northeast 100 115 4,200 660 Climbing Tampa TRACON
17:16 27.5836 -82.3977 32° Northeast  Level FlightAware Approximate
17:16 27.5000 -82.4167 42° Northeast 103 119 4,900  Level Tampa TRACON
17:17 27.6119 -82.3776 32° Northeast  Level FlightAware Approximate
17:17 27.5167 -82.3833 61° Northeast 122 140 4,900  Level Tampa TRACON
17:18 27.5500 -82.3667 24° Northeast 132 152 4,800  Descending Tampa TRACON
17:19 27.5833 -82.3333 42° Northeast 140 161 4,900  Climbing Tampa TRACON
17:19 27.6000 -82.3167 42° Northeast 139 160 4,800 -60 Descending Tampa TRACON
17:20 27.6333 -82.2833 42° Northeast 139 160 4,800  Level Tampa TRACON
17:21 27.6667 -82.2667 24° Northeast 135 155 4,900  Climbing Tampa TRACON
17:22 27.7000 -82.2333 42° Northeast 139 160 4,900 -60 Level Tampa TRACON
17:23 27.7333 -82.2000 42° Northeast 144 166 4,800  Descending Tampa TRACON
17:25 27.7667 -82.1833 24° Northeast 143 165 4,900  Climbing Tampa TRACON
17:25 27.8000 -82.1667 24° Northeast 144 166 4,800 -60 Descending Tampa TRACON
17:26 27.8333 -82.1500 24° Northeast 140 161 4,800  Level Tampa TRACON
17:27 27.8667 -82.1333 24° Northeast 146 168 4,900  Climbing Tampa TRACON
17:28 27.9167 -82.1167 16° North 146 168 4,900 -60 Level Tampa TRACON
17:29 27.9500 -82.1000 24° Northeast 148 170 4,800 -60 Descending Tampa TRACON
17:30 27.9833 -82.0667 41° Northeast 147 169 4,800  Level Tampa TRACON
17:31 28.0167 -82.0500 24° Northeast 147 169 4,900  Climbing Tampa TRACON
17:33 28.0667 -82.0333 16° North 147 169 4,900  Level Tampa TRACON
17:35 28.1500 -81.9833 28° Northeast 147 169 4,900  Level Orlando TRACON
17:36 28.1833 -81.9667 24° Northeast 147 169 4,900  Level Orlando TRACON
17:37 28.2167 -81.9333 41° Northeast 149 171 4,900  Level Orlando TRACON
17:38 28.2667 -81.9167 16° North 153 176 4,900 -60 Level Orlando TRACON
17:39 28.3000 -81.9000 24° Northeast 154 177 4,800 -60 Descending Orlando TRACON
17:40 28.3167 -81.8667 60° Northeast 149 171 4,800 -240 Level Orlando TRACON
17:41 28.3500 -81.8333 41° Northeast 157 181 4,400 -420 Descending Orlando TRACON
17:42 28.3833 -81.8000 41° Northeast 158 182 4,000 -300 Descending Orlando TRACON
17:43 28.4167 -81.7667 41° Northeast 150 173 3,800 -180 Descending Orlando TRACON
17:44 28.4500 -81.7333 41° Northeast 144 166 3,700 -300 Descending Orlando TRACON
17:45 28.4833 -81.7000 41° Northeast 150 173 3,300 -360 Descending Orlando TRACON
17:46 28.5167 -81.6667 41° Northeast 144 166 3,000 -360 Descending Orlando TRACON
17:47 28.5500 -81.6500 24° Northeast 146 168 2,600 -480 Descending Orlando TRACON
17:48 28.5833 -81.6167 41° Northeast 149 171 2,100 -420 Descending Orlando TRACON
17:49 28.6000 -81.5833 60° Northeast 147 169 1,800 -120 Descending Orlando TRACON
17:50 28.6333 -81.5667 24° Northeast 139 160 1,900  Climbing Orlando TRACON
17:51 28.6667 -81.5333 41° Northeast 138 159 1,900  Level Orlando TRACON
17:52 28.7000 -81.5167 24° Northeast 141 162 1,900  Level Orlando TRACON
17:53 28.7333 -81.4833 41° Northeast 141 162 1,900  Level Orlando TRACON
17:54 28.7667 -81.4667 24° Northeast 143 165 1,900 -120 Level Orlando TRACON
17:55 28.7833 -81.4167 69° East 149 171 1,700 -240 Descending Orlando TRACON
17:56 28.7833 -81.3833 90° East 144 166 1,500 -300 Descending Orlando TRACON
17:57 28.7833 -81.3333 90° East 144 166 1,200 -420 Descending Orlando TRACON
17:58 28.7833 -81.2833 90° East 112 129 700 -540 Descending Orlando TRACON
18:00 28.7667 -81.2333 49° Northeast  Level FlightAware Approximate
18:07 28.7770 -81.2349 49° Northeast  Level Estimated